Presure
85 90 90 89 90 85 97 89 98 89 97 100 87 100 108 130 138 99 145 212 183 166 186 181 93 186 214 222 213 196 97 167 126 99 93 97 99 103 210 146 131 97 96
89 90 89 97 96 91 96 92 101 96 99 89 100 201 102 176 190 165 212 208 221 195 218 219 226 104 220 130 240 207 161 91 83 88 113 217 181 219 202 100 96 97 83
87 90 82 88 83 97 85 99 100 98 97 92 197 108 87 220 207 217 213 212 206 214 215 218 222 226 220 115 92 96 83 84 214 87 134 91 208 205 111 103 86 108 102
93 86 86 79 96 98 87 87 100 98 99 101 122 196 196 207 200 208 153 204 203 225 215 213 216 210 220 231 242 185 209 217 180 95 211 231 230 98 90 128 135 211 243
79 94 83 96 95 96 94 102 97 97 141 194 76 215 195 222 223 213 216 219 135 159 141 227 224 186 219 85 211 233 234 180 95 211 239 299 94 237 240 152 178 197 140
84 96 100 99 99 100 102 143 204 129 149 220 212 205 206 213 217 245 245 206 214 125 220 137 215 217 226 179 235 227 179 205 128 216 133 280 278 285 247 105 119 201 120
101 101 97 103 105 221 222 235 246 249 276 307 288 250 278 254 271 253 218 221 221 218 231 217 223 226 235 80 232 87 244 89 138 275 270 266 265 268 84 289 295 101 207
202 203 202 202 208 211 229 248 284 304 290 251 241 233 223 221 225 225 225 228 222 218 222 223 232 234 243 253 253 224 214 273 231 263 253 258 263 265 286 299 300 312 252
193 193 187 189 206 171 233 309 295 259 150 221 245 251 248 249 243 164 233 229 227 225 230 248 252 256 256 267 232 232 269 260 254 129 256 263 348 423 449 447 373 281 275
188 166 166 211 166 247 309 284 244 207 268 277 269 273 288 278 266 272 264 263 281 276 290 267 255 247 216 218 226 262 260 249 240 246 254 412 365 394 398 371 432 377 348
197 191 200 192 251 297 276 232 198 298 297 286 284 284 283 281 279 273 271 269 265 264 276 276 251 241 242 243 262 254 244 235 234 246 318 306 323 346 438 357 460 451 354
188 160 241 257 288 261 213 217 273 263 273 266 252 286 303 296 291 306 317 296 236 248 265 262 245 246 242 251 245 244 232 230 236 245 308 253 303 314 325 335 335 323 313
224 239 269 256 264 209 234 257 252 302 296 352 340 326 314 307 298 289 284 271 257 257 253 251 245 244 244 240 251 238 231 235 231 257 273 262 286 316 299 300 257 255 309
225 272 286 261 208 235 254 274 307 290 307 328 303 291 284 281 280 278 262 253 254 259 248 245 246 239 235 251 241 229 228 219 224 235 285 253 263 268 280 262 259 227 251
266 306 259 201 248 254 233 321 286 310 310 290 280 276 268 268 266 260 256 256 249 242 237 238 236 232 239 240 233 226 230 225 228 229 265 265 241 279 268 248 259 219 245
302 254 199 233 219 243 221 307 289 283 286 285 278 272 260 254 249 245 241 238 234 235 236 231 238 230 256 244 229 226 227 226 226 220 239 268 252 228 270 252 257 235 277
237 205 241 237 248 228 212 224 283 277 269 265 262 260 254 247 242 239 238 237 231 230 229 228 241 229 256 246 228 225 228 225 212 219 221 235 255 276 250 266 264 210 292
263 248 223 234 238 219 217 206 215 216 231 244 247 241 245 240 239 235 229 229 229 236 245 260 240 239 251 253 230 228 224 225 217 226 222 227 237 246 267 304 259 251 217
255 238 251 242 222 219 216 210 207 206 214 213 239 242 235 234 230 234 228 227 227 228 240 235 230 251 262 242 224 235 227 224 219 219 226 228 230 226 243 263 283 322 253
289 254 240 226 223 217 209 210 203 208 213 205 204 208 222 247 245 244 242 241 236 235 232 248 230 244 253 239 247 236 231 224 222 218 220 229 218 221 229 241 256 279 318
252 240 226 219 222 214 206 203 205 207 206 209 209 204 202 201 208 229 237 235 240 248 256 247 245 233 246 217 238 243 232 232 227 227 208 221 224 223 213 231 237 251 270
231 227 222 223 221 218 203 207 195 220 221 202 201 233 225 203 203 198 201 208 225 237 248 254 257 263 244 226 234 247 248 234 233 124 227 230 220 222 223 217 225 237 244
208 209 205 205 197 190 206 208 202 190 212 205 208 193 217 231 236 212 221 211 202 156 217 222 232 241 269 224 260 243 259 258 236 234 231 224 224 220 211 223 217 223 233
190 192 202 197 191 186 207 206 211 211 181 183 203 213 226 204 226 234 231 196 226 220 200 199 207 217 224 236 244 255 226 261 235 248 233 231 216 213 221 220 217 215 216
208 203 210 208 208 188 208 213 206 204 213 217 202 216 218 222 225 208 193 223 229 232 236 231 216 198 202 203 210 220 228 230 257 238 250 242 226 223 213 214 227 218 225
192 187 201 201 195 217 211 214 220 205 216 214 216 208 224 216 218 218 210 212 215 211 217 224 225 229 226 228 226 193 194 201 227 232 245 246 236 228 231 221 215 216 207
Wind_Speed
18 30 26 25 30 20 43 24 47 22 48 51 21 45 47 63 42 40 63 62 61 58 54 57 40 58 59 58 62 54 34 47 43 35 32 33 34 38 72 46 40 31 31
32 37 28 47 47 38 46 37 54 51 55 23 57 66 58 63 66 50 63 61 62 63 60 59 60 34 61 35 64 57 44 31 28 31 40 66 59 70 64 36 35 36 21
30 37 15 32 21 54 25 56 56 58 54 36 71 40 30 74 64 69 66 63 59 60 60 61 62 62 60 51 29 31 30 31 56 34 46 36 54 53 38 37 27 42 39
44 24 29 25 54 59 33 36 65 62 65 66 66 61 60 72 62 66 46 61 60 65 63 62 61 59 62 64 67 53 57 58 61 40 60 64 64 41 34 50 50 58 67
17 51 37 59 56 59 55 70 66 61 62 67 26 80 63 78 79 72 73 72 48 52 45 66 64 52 64 29 61 64 64 62 45 66 66 53 39 58 59 44 58 62 49
32 61 65 66 67 69 73 75 81 68 61 69 77 74 75 77 76 68 70 64 68 49 65 45 64 64 67 54 66 61 64 56 52 56 41 52 54 54 52 48 45 64 53
69 68 67 74 75 76 76 80 81 78 74 62 63 54 61 64 61 64 67 66 67 67 67 66 65 66 69 28 66 33 63 34 38 52 54 54 56 56 25 54 54 47 63
73 73 76 76 79 78 82 83 84 72 68 65 64 64 67 67 67 67 66 66 67 67 67 67 69 68 69 65 61 63 64 45 51 53 54 55 55 54 65 66 62 56 69
74 76 76 75 78 61 80 80 74 70 47 65 67 67 67 68 68 49 66 67 68 68 70 69 65 62 61 55 59 60 41 49 49 50 57 59 64 54 55 58 58 59 68
77 64 66 85 62 85 76 71 69 66 70 70 69 68 63 65 66 64 64 64 59 59 52 58 56 56 60 59 60 44 41 43 48 53 54 44 37 40 38 45 45 54 64
79 78 79 74 86 74 69 66 68 63 60 61 59 57 55 54 52 51 51 51 48 47 40 38 47 50 50 48 39 39 39 40 45 50 47 35 32 31 17 19 20 35 49
76 67 89 86 72 69 65 67 66 63 63 61 60 56 45 44 47 37 33 33 54 46 35 34 42 42 42 37 37 34 34 35 42 45 29 38 28 18 6 5 20 29 60
86 89 88 70 66 65 64 64 63 59 55 31 24 19 19 19 20 23 26 24 30 31 31 31 35 37 31 33 27 28 28 32 36 42 35 37 33 16 15 10 27 42 44
84 86 69 61 65 64 61 58 50 50 36 16 11 13 14 14 13 14 17 21 21 19 24 28 30 28 27 25 27 26 25 28 32 36 33 30 16 9 20 23 31 45 73
88 69 58 66 61 58 53 40 45 29 18 13 14 10 6 5 5 7 11 13 14 20 27 26 27 26 27 25 26 23 21 26 28 29 31 27 15 19 32 46 43 48 70
70 59 67 60 58 48 45 30 33 26 22 18 12 6 4 4 5 8 10 14 19 22 23 23 26 24 24 24 24 24 18 20 24 25 25 23 19 7 27 44 46 46 46
63 66 55 54 50 39 41 35 27 24 20 15 13 11 7 11 12 12 15 18 20 23 24 26 28 24 25 27 25 24 23 17 21 22 23 20 16 17 23 30 47 36 35
52 51 61 53 43 35 34 40 34 31 29 27 22 22 18 18 19 18 20 22 24 27 29 27 28 29 28 30 26 25 25 23 19 21 22 19 15 14 12 19 37 38 47
56 56 42 44 36 34 34 37 35 33 30 28 28 25 24 23 23 23 23 24 27 28 30 28 28 31 30 30 25 27 26 26 24 21 20 18 19 19 16 16 18 19 44
33 34 40 37 35 35 37 37 41 36 31 29 27 26 26 27 28 28 28 28 28 29 29 32 29 30 30 30 32 31 29 28 26 26 25 22 21 21 19 16 17 16 16
30 34 37 36 37 37 38 40 40 38 35 32 30 28 27 25 24 28 28 26 27 28 30 31 33 31 32 30 33 34 32 32 30 29 30 28 25 21 25 17 14 15 6
39 39 38 39 40 41 43 42 45 45 43 38 36 39 38 32 28 29 28 29 29 27 26 28 31 34 34 33 34 37 38 36 36 40 33 32 29 26 23 25 19 14 12
49 46 47 46 48 48 48 47 48 49 47 44 41 40 41 42 40 36 36 36 32 37 31 31 31 30 30 34 38 35 42 42 40 38 37 35 34 32 29 26 27 24 20
56 56 54 54 54 52 52 53 53 53 51 50 48 47 48 44 41 41 40 41 42 39 33 36 38 37 36 34 33 36 35 40 39 44 40 41 36 36 35 34 30 32 32
63 63 62 62 62 59 60 59 57 57 60 61 53 54 51 50 48 42 46 45 45 47 43 42 44 45 41 36 36 40 39 38 39 41 42 45 42 42 40 40 41 36 38
65 62 66 64 60 71 68 67 69 62 68 66 65 56 62 56 54 53 49 51 52 49 46 46 47 48 47 47 44 44 45 42 42 42 40 43 47 46 48 47 44 44 43
Wind_Direction
306 306 307 313 314 304 310 315 313 305 314 312 266 310 298 290 274 286 279 289 291 291 289 284 264 282 277 277 274 277 272 271 266 278 293 288 284 277 267 276 280 295 297
302 305 309 296 301 316 309 312 307 309 309 264 308 293 307 297 292 290 293 293 291 287 288 285 286 277 283 284 283 280 288 282 294 293 277 270 269 268 266 282 290 288 289
303 304 281 304 304 301 299 305 305 304 305 281 294 283 287 293 297 294 295 292 290 292 289 288 289 286 284 266 281 282 287 290 287 298 273 291 268 266 272 285 301 276 278
295 298 293 278 304 301 299 298 303 303 302 299 299 298 295 298 296 298 291 289 285 290 287 285 285 286 284 286 287 289 286 288 274 280 277 272 267 272 293 267 266 253 252
273 300 293 301 304 302 299 297 299 298 297 298 289 295 291 292 291 292 292 289 281 279 285 287 286 287 283 283 286 287 285 274 283 276 279 278 282 265 263 270 256 255 258
294 298 295 297 298 297 296 296 295 292 293 287 294 296 295 293 290 283 280 285 285 282 286 285 283 284 285 286 288 290 276 292 281 285 291 278 276 274 270 278 277 256 261
290 292 295 291 291 298 297 301 301 300 297 293 292 287 286 286 279 280 284 282 284 283 284 282 284 285 285 290 287 294 289 296 294 287 287 284 278 275 292 266 254 279 248
295 295 293 296 298 299 302 304 303 300 299 294 292 290 287 285 284 283 282 282 281 282 283 284 286 286 285 287 289 287 287 288 290 294 288 288 285 279 277 267 256 245 225
293 294 298 297 301 290 302 304 302 300 293 294 293 291 289 287 285 284 282 281 281 281 282 281 281 281 283 284 286 289 287 288 296 287 296 298 297 292 276 263 248 229 206
294 289 299 302 289 306 305 304 303 297 298 295 292 290 285 283 281 279 277 276 275 277 279 277 277 278 281 285 287 285 290 295 298 302 307 323 327 318 284 265 248 225 223
298 299 299 297 306 305 307 305 298 303 301 297 293 289 286 282 278 275 274 274 274 278 276 271 271 276 279 283 280 283 291 297 302 307 315 315 346 327 320 263 228 221 208
297 292 304 307 306 307 305 304 305 302 301 299 298 291 286 280 278 273 262 264 273 278 269 266 268 271 276 277 280 284 292 301 305 317 307 330 341 353 40 169 207 191 205
299 305 308 304 306 307 310 309 306 306 306 313 316 313 309 297 281 272 268 260 264 266 264 264 266 269 273 277 273 283 297 305 310 325 314 329 330 55 59 138 203 206 216
301 308 305 304 306 311 312 309 306 311 310 310 318 332 318 305 294 280 267 262 263 263 263 264 268 270 273 265 274 283 300 303 313 325 325 328 356 138 126 165 192 215 199
304 305 300 303 307 310 315 304 308 324 320 324 322 314 325 320 290 280 273 265 255 258 265 269 271 273 275 265 273 281 300 307 313 323 330 318 343 177 176 202 199 223 202
300 299 299 303 308 309 313 303 313 333 339 315 310 335 334 316 305 282 262 263 268 270 272 277 280 274 266 259 268 280 288 299 307 317 333 316 320 271 216 213 208 222 214
297 296 295 299 301 304 304 316 317 324 330 332 318 304 274 275 263 274 278 280 287 286 284 284 284 277 267 255 267 275 282 287 293 304 314 326 329 302 268 247 233 238 227
291 290 294 297 296 295 300 300 311 319 332 337 331 331 324 318 310 304 302 300 299 295 289 281 280 282 270 256 268 269 279 284 284 292 301 303 307 309 315 344 249 248 229
283 284 281 284 289 293 295 296 298 305 320 328 328 321 319 313 310 303 301 300 297 297 295 289 288 284 276 269 274 266 272 279 287 286 286 291 296 299 315 331 345 295 229
265 266 273 281 286 288 289 292 295 302 309 306 310 320 325 309 301 296 294 292 289 287 289 287 287 284 281 273 270 268 268 273 276 283 283 284 282 290 299 319 326 344 340
266 269 279 283 286 284 285 291 295 301 301 303 305 301 302 303 315 314 308 306 300 296 290 283 283 284 282 283 275 269 271 268 272 270 277 282 280 278 285 296 303 315 305
284 284 287 288 288 287 286 284 287 302 302 295 295 309 307 295 296 292 296 302 304 301 300 294 289 284 283 286 280 274 268 270 269 282 271 272 274 273 271 277 278 279 275
286 284 282 284 286 290 284 285 284 287 292 289 292 288 303 302 298 292 296 291 287 279 297 298 295 293 289 287 277 279 274 268 269 268 266 269 270 272 268 264 264 262 254
290 288 283 283 285 288 285 285 289 289 288 290 286 295 301 293 296 293 293 287 287 286 282 282 285 288 290 291 289 283 281 273 272 264 267 266 268 269 269 266 259 257 258
280 285 281 281 281 287 284 285 284 285 289 291 284 293 295 295 294 287 283 291 289 288 289 287 280 278 278 278 283 286 284 280 280 272 265 263 267 266 267 266 264 257 251
283 285 284 284 282 286 287 287 288 285 289 289 291 289 291 289 289 288 288 288 287 285 286 284 284 285 283 282 280 274 274 276 280 276 274 267 266 267 265 264 265 263 262